Today

Time Wind Dr Wind Spd
mph
Wind Gust
mph
Hum In
%
Humid
%
TempI
F
Temp
F
Raw Bar
in
Tot Rain
in
UV Solar
W/sqm
DailyRain
in
HourRain
in
24HrRain
in
RainRate
in
12/11/18 12:00:25 AM 105 0.0 11.0 32 61 78.3 53.5 30.076 7.03 0.0 0 0.00 0.00 0.00 0.00
12/11/18 12:01:30 AM 105 0.0 0.0 28 61 78.3 53.5 30.076 7.03 0.0 0 0.00 0.00 0.00 0.00
12/11/18 12:02:22 AM 105 0.0 0.0 28 61 78.3 53.6 30.076 7.03 0.0 0 0.00 0.00 0.00 0.00
12/11/18 12:03:35 AM 105 0.0 0.0 28 61 78.3 53.6 30.075 7.03 0.0 0 0.00 0.00 0.00 0.00
12/11/18 12:04:26 AM 105 0.0 0.0 28 61 78.3 53.7 30.075 7.03 0.0 0 0.00 0.00 0.00 0.00
12/11/18 12:05:21 AM 105 0.0 0.0 28 61 78.3 53.7 30.075 7.03 0.0 0 0.00 0.00 0.00 0.00
12/11/18 12:06:31 AM 105 0.0 0.0 28 61 78.3 53.9 30.074 7.03 0.0 0 0.00 0.00 0.00 0.00
12/11/18 12:07:19 AM 105 0.0 0.0 28 61 78.3 53.9 30.074 7.03 0.0 0 0.00 0.00 0.00 0.00
12/11/18 12:08:35 AM 105 2.0 3.0 28 61 78.3 53.8 30.072 7.03 0.0 0 0.00 0.00 0.00 0.00
12/11/18 12:09:27 AM 105 2.0 3.0 28 61 78.3 53.7 30.074 7.03 0.0 0 0.00 0.00 0.00 0.00
12/11/18 12:10:19 AM 105 2.0 3.0 28 62 78.3 53.6 30.074 7.03 0.0 0 0.00 0.00 0.00 0.00
12/11/18 12:11:27 AM 105 3.0 3.0 28 63 78.3 53.4 30.075 7.03 0.0 0 0.00 0.00 0.00 0.00
12/11/18 12:12:20 AM 105 2.0 3.0 28 64 78.3 53.3 30.075 7.03 0.0 0 0.00 0.00 0.00 0.00
12/11/18 12:13:33 AM 105 3.0 3.0 28 64 78.3 53.1 30.074 7.03 0.0 0 0.00 0.00 0.00 0.00
12/11/18 12:14:23 AM 105 3.0 4.0 28 64 78.3 52.9 30.074 7.03 0.0 0 0.00 0.00 0.00 0.00
12/11/18 12:15:37 AM 105 3.0 4.0 28 64 78.3 52.8 30.074 7.03 0.0 0 0.00 0.00 0.00 0.00
12/11/18 12:16:30 AM 105 2.0 4.0 28 64 78.3 52.8 30.073 7.03 0.0 0 0.00 0.00 0.00 0.00
12/11/18 12:17:16 AM 105 1.0 4.0 28 65 78.3 52.8 30.073 7.03 0.0 0 0.00 0.00 0.00 0.00
12/11/18 12:18:30 AM 105 1.0 4.0 28 65 78.4 52.7 30.073 7.03 0.0 0 0.00 0.00 0.00 0.00
12/11/18 12:19:23 AM 105 0.0 4.0 28 65 78.4 52.7 30.073 7.03 0.0 0 0.00 0.00 0.00 0.00
12/11/18 12:20:34 AM 105 2.0 4.0 28 66 78.4 52.6 30.073 7.03 0.0 0 0.00 0.00 0.00 0.00
12/11/18 12:21:27 AM 105 2.0 4.0 28 66 78.4 52.6 30.071 7.03 0.0 0 0.00 0.00 0.00 0.00
12/11/18 12:22:35 AM 94 4.0 6.0 28 66 78.5 52.5 30.073 7.03 0.0 0 0.00 0.00 0.00 0.00
12/11/18 12:23:27 AM 69 5.0 6.0 28 66 78.4 52.5 30.074 7.03 0.0 0 0.00 0.00 0.00 0.00
12/11/18 12:24:20 AM 67 5.0 6.0 28 66 78.4 52.5 30.074 7.03 0.0 0 0.00 0.00 0.00 0.00
12/11/18 12:25:31 AM 70 5.0 6.0 28 66 78.5 52.5 30.071 7.03 0.0 0 0.00 0.00 0.00 0.00
12/11/18 12:26:24 AM 72 4.0 6.0 28 66 78.5 52.6 30.071 7.03 0.0 0 0.00 0.00 0.00 0.00
12/11/18 12:27:32 AM 76 4.0 6.0 28 66 78.5 52.6 30.071 7.03 0.0 0 0.00 0.00 0.00 0.00
12/11/18 12:28:24 AM 72 5.0 6.0 28 66 78.5 52.6 30.071 7.03 0.0 0 0.00 0.00 0.00 0.00
12/11/18 12:29:35 AM 73 5.0 7.0 28 66 78.5 52.6 30.068 7.03 0.0 0 0.00 0.00 0.00 0.00
12/11/18 12:30:31 AM 74 7.0 7.0 28 66 78.5 52.7 30.069 7.03 0.0 0 0.00 0.00 0.00 0.00
12/11/18 12:31:21 AM 75 4.0 7.0 28 65 78.5 52.7 30.069 7.03 0.0 0 0.00 0.00 0.00 0.00
12/11/18 12:32:34 AM 76 7.0 8.0 28 65 78.5 52.7 30.067 7.03 0.0 0 0.00 0.00 0.00 0.00
12/11/18 12:33:21 AM 82 4.0 8.0 28 65 78.5 52.7 30.067 7.03 0.0 0 0.00 0.00 0.00 0.00
12/11/18 12:34:35 AM 94 2.0 8.0 28 64 78.6 52.8 30.068 7.03 0.0 0 0.00 0.00 0.00 0.00
12/11/18 12:35:28 AM 94 2.0 8.0 28 64 78.5 52.8 30.070 7.03 0.0 0 0.00 0.00 0.00 0.00
12/11/18 12:36:20 AM 94 0.0 8.0 28 65 78.5 52.9 30.070 7.03 0.0 0 0.00 0.00 0.00 0.00
12/11/18 12:37:34 AM 101 2.0 8.0 28 64 78.5 53.0 30.069 7.03 0.0 0 0.00 0.00 0.00 0.00
12/11/18 12:38:21 AM 101 2.0 8.0 28 64 78.5 53.0 30.069 7.03 0.0 0 0.00 0.00 0.00 0.00
12/11/18 12:39:35 AM 101 2.0 8.0 28 64 78.6 53.1 30.074 7.03 0.0 0 0.00 0.00 0.00 0.00
12/11/18 12:40:28 AM 101 1.0 8.0 28 64 78.6 53.1 30.071 7.03 0.0 0 0.00 0.00 0.00 0.00
12/11/18 12:41:21 AM 101 1.0 8.0 28 64 78.6 53.1 30.071 7.03 0.0 0 0.00 0.00 0.00 0.00
12/11/18 12:42:31 AM 101 1.0 8.0 28 64 78.6 53.1 30.073 7.03 0.0 0 0.00 0.00 0.00 0.00
12/11/18 12:43:24 AM 100 1.0 8.0 28 64 78.6 53.1 30.073 7.03 0.0 0 0.00 0.00 0.00 0.00
12/11/18 12:44:32 AM 21 2.0 8.0 28 64 78.6 53.0 30.071 7.03 0.0 0 0.00 0.00 0.00 0.00
12/11/18 12:45:28 AM 20 3.0 8.0 28 63 78.6 53.0 30.073 7.03 0.0 0 0.00 0.00 0.00 0.00
12/11/18 12:46:18 AM 328 3.0 8.0 28 63 78.6 53.0 30.073 7.03 0.0 0 0.00 0.00 0.00 0.00
12/11/18 12:47:32 AM 327 4.0 8.0 28 63 78.6 53.1 30.074 7.03 0.0 0 0.00 0.00 0.00 0.00
12/11/18 12:48:24 AM 327 4.0 8.0 28 63 78.6 53.1 30.074 7.03 0.0 0 0.00 0.00 0.00 0.00
12/11/18 12:49:35 AM 315 3.0 8.0 28 63 78.6 53.1 30.075 7.03 0.0 0 0.00 0.00 0.00 0.00
12/11/18 12:50:28 AM 315 4.0 8.0 28 63 78.6 53.1 30.074 7.03 0.0 0 0.00 0.00 0.00 0.00
12/11/18 12:51:21 AM 317 3.0 8.0 28 63 78.6 53.1 30.074 7.03 0.0 0 0.00 0.00 0.00 0.00
12/11/18 12:52:32 AM 322 5.0 8.0 28 63 78.6 53.1 30.076 7.03 0.0 0 0.00 0.00 0.00 0.00
12/11/18 12:53:24 AM 333 4.0 8.0 28 63 78.6 53.1 30.076 7.03 0.0 0 0.00 0.00 0.00 0.00
12/11/18 12:54:17 AM 333 2.0 8.0 28 62 78.6 53.1 30.074 7.03 0.0 0 0.00 0.00 0.00 0.00
12/11/18 12:55:28 AM 9 3.0 8.0 28 62 78.6 53.1 30.071 7.03 0.0 0 0.00 0.00 0.00 0.00
12/11/18 12:56:21 AM 9 3.0 8.0 28 61 78.6 53.3 30.071 7.03 0.0 0 0.00 0.00 0.00 0.00
12/11/18 12:57:32 AM 9 2.0 8.0 28 61 78.7 53.5 30.069 7.03 0.0 0 0.00 0.00 0.00 0.00
12/11/18 12:58:24 AM 9 1.0 8.0 28 61 78.7 53.5 30.069 7.03 0.0 0 0.00 0.00 0.00 0.00
12/11/18 12:59:17 AM 9 2.0 8.0 28 61 78.6 53.6 30.070 7.03 0.0 0 0.00 0.00 0.00 0.00
12/11/18 1:00:28 AM 9 1.0 8.0 28 61 78.6 53.7 30.073 7.03 0.0 0 0.00 0.00 0.00 0.00
12/11/18 1:01:21 AM 9 1.0 8.0 28 61 78.6 53.7 30.073 7.03 0.0 0 0.00 0.00 0.00 0.00
12/11/18 1:02:35 AM 9 1.0 8.0 28 61 78.7 53.7 30.067 7.03 0.0 0 0.00 0.00 0.00 0.00
12/11/18 1:03:25 AM 9 2.0 8.0 28 61 78.7 53.6 30.067 7.03 0.0 0 0.00 0.00 0.00 0.00
12/11/18 1:04:21 AM 9 0.0 8.0 28 61 78.7 53.6 30.070 7.03 0.0 0 0.00 0.00 0.00 0.00
12/11/18 1:05:28 AM 9 1.0 8.0 28 61 78.7 53.5 30.066 7.03 0.0 0 0.00 0.00 0.00 0.00
12/11/18 1:06:21 AM 9 0.0 8.0 28 61 78.7 53.5 30.066 7.03 0.0 0 0.00 0.00 0.00 0.00
12/11/18 1:07:35 AM 9 0.0 8.0 28 61 78.7 53.4 30.067 7.03 0.0 0 0.00 0.00 0.00 0.00
12/11/18 1:08:28 AM 9 0.0 8.0 28 61 78.7 53.4 30.069 7.03 0.0 0 0.00 0.00 0.00 0.00
12/11/18 1:09:17 AM 9 0.0 8.0 28 61 78.7 53.4 30.069 7.03 0.0 0 0.00 0.00 0.00 0.00
12/11/18 1:10:31 AM 9 0.0 8.0 28 61 78.7 53.4 30.071 7.03 0.0 0 0.00 0.00 0.00 0.00
12/11/18 1:11:21 AM 9 0.0 8.0 28 61 78.7 53.4 30.071 7.03 0.0 0 0.00 0.00 0.00 0.00
12/11/18 1:12:32 AM 9 0.0 8.0 28 61 78.7 53.3 30.066 7.03 0.0 0 0.00 0.00 0.00 0.00
12/11/18 1:13:24 AM 9 0.0 8.0 28 62 78.7 53.3 30.066 7.03 0.0 0 0.00 0.00 0.00 0.00
12/11/18 1:14:17 AM 9 0.0 8.0 28 62 78.7 53.3 30.067 7.03 0.0 0 0.00 0.00 0.00 0.00
12/11/18 1:15:31 AM 9 0.0 8.0 28 62 78.7 53.1 30.067 7.03 0.0 0 0.00 0.00 0.00 0.00
12/11/18 1:16:18 AM 9 1.0 8.0 28 62 78.7 53.0 30.067 7.03 0.0 0 0.00 0.00 0.00 0.00
12/11/18 1:17:32 AM 9 0.0 8.0 28 62 78.8 53.0 30.067 7.03 0.0 0 0.00 0.00 0.00 0.00
12/11/18 1:18:24 AM 9 1.0 8.0 28 62 78.8 53.0 30.067 7.03 0.0 0 0.00 0.00 0.00 0.00
12/11/18 1:19:35 AM 9 1.0 8.0 28 62 78.7 53.0 30.067 7.03 0.0 0 0.00 0.00 0.00 0.00
12/11/18 1:20:28 AM 9 0.0 8.0 28 62 78.7 53.1 30.069 7.03 0.0 0 0.00 0.00 0.00 0.00
12/11/18 1:21:21 AM 9 1.0 8.0 28 61 78.7 53.2 30.069 7.03 0.0 0 0.00 0.00 0.00 0.00
12/11/18 1:22:29 AM 311 3.0 8.0 28 61 78.7 53.2 30.070 7.03 0.0 0 0.00 0.00 0.00 0.00
12/11/18 1:23:21 AM 309 3.0 8.0 28 61 78.7 53.1 30.070 7.03 0.0 0 0.00 0.00 0.00 0.00
12/11/18 1:24:35 AM 271 3.0 8.0 28 62 78.7 53.0 30.070 7.03 0.0 0 0.00 0.00 0.00 0.00
12/11/18 1:25:28 AM 273 6.0 8.0 28 62 78.7 52.9 30.073 7.03 0.0 0 0.00 0.00 0.00 0.00
12/11/18 1:26:18 AM 290 4.0 8.0 28 63 78.7 52.8 30.073 7.03 0.0 0 0.00 0.00 0.00 0.00
12/11/18 1:27:28 AM 294 5.0 8.0 28 63 78.8 52.7 30.071 7.03 0.0 0 0.00 0.00 0.00 0.00
12/11/18 1:28:21 AM 296 4.0 8.0 28 63 78.8 52.6 30.071 7.03 0.0 0 0.00 0.00 0.00 0.00
12/11/18 1:29:32 AM 325 5.0 8.0 28 63 78.7 52.5 30.071 7.03 0.0 0 0.00 0.00 0.00 0.00
12/11/18 1:30:28 AM 332 3.0 8.0 28 63 78.8 52.5 30.071 7.03 0.0 0 0.00 0.00 0.00 0.00
12/11/18 1:31:21 AM 344 4.0 8.0 28 63 78.8 52.4 30.071 7.03 0.0 0 0.00 0.00 0.00 0.00
12/11/18 1:32:29 AM 344 3.0 8.0 28 63 78.8 52.3 30.071 7.03 0.0 0 0.00 0.00 0.00 0.00
12/11/18 1:33:22 AM 341 3.0 8.0 28 63 78.8 52.3 30.071 7.03 0.0 0 0.00 0.00 0.00 0.00
12/11/18 1:34:33 AM 312 4.0 8.0 28 63 78.8 52.3 30.071 7.03 0.0 0 0.00 0.00 0.00 0.00
12/11/18 1:35:25 AM 312 2.0 8.0 28 63 78.8 52.3 30.069 7.03 0.0 0 0.00 0.00 0.00 0.00
12/11/18 1:36:18 AM 312 1.0 8.0 28 63 78.8 52.3 30.069 7.03 0.0 0 0.00 0.00 0.00 0.00
12/11/18 1:37:32 AM 312 0.0 8.0 28 63 78.8 52.4 30.070 7.03 0.0 0 0.00 0.00 0.00 0.00
12/11/18 1:38:19 AM 312 1.0 8.0 28 62 78.8 52.4 30.070 7.03 0.0 0 0.00 0.00 0.00 0.00
12/11/18 1:39:33 AM 312 1.0 8.0 28 62 78.8 52.6 30.071 7.03 0.0 0 0.00 0.00 0.00 0.00
12/11/18 1:40:26 AM 312 2.0 8.0 28 61 78.8 52.7 30.071 7.03 0.0 0 0.00 0.00 0.00 0.00
12/11/18 1:41:18 AM 312 2.0 8.0 28 62 78.8 52.7 30.072 7.03 0.0 0 0.00 0.00 0.00 0.00
12/11/18 1:42:32 AM 303 2.0 8.0 28 62 78.8 52.7 30.071 7.03 0.0 0 0.00 0.00 0.00 0.00
12/11/18 1:43:19 AM 303 1.0 8.0 28 62 78.8 52.6 30.071 7.03 0.0 0 0.00 0.00 0.00 0.00
12/11/18 1:44:33 AM 303 1.0 8.0 28 62 78.8 52.5 30.071 7.03 0.0 0 0.00 0.00 0.00 0.00
12/11/18 1:45:29 AM 303 1.0 8.0 28 63 78.8 52.4 30.072 7.03 0.0 0 0.00 0.00 0.00 0.00
12/11/18 1:46:19 AM 303 1.0 8.0 28 63 78.8 52.3 30.072 7.03 0.0 0 0.00 0.00 0.00 0.00
12/11/18 1:47:30 AM 303 3.0 8.0 28 63 78.8 52.1 30.075 7.03 0.0 0 0.00 0.00 0.00 0.00
12/11/18 1:48:23 AM 303 1.0 8.0 28 64 78.8 52.0 30.075 7.03 0.0 0 0.00 0.00 0.00 0.00
12/11/18 1:49:31 AM 303 2.0 8.0 28 64 78.8 51.9 30.073 7.03 0.0 0 0.00 0.00 0.00 0.00
12/11/18 1:50:24 AM 303 1.0 8.0 28 64 78.8 51.7 30.073 7.03 0.0 0 0.00 0.00 0.00 0.00
12/11/18 1:51:17 AM 303 1.0 8.0 28 64 78.8 51.6 30.071 7.03 0.0 0 0.00 0.00 0.00 0.00
12/11/18 1:52:31 AM 303 1.0 8.0 28 65 78.8 51.5 30.072 7.03 0.0 0 0.00 0.00 0.00 0.00
12/11/18 1:53:21 AM 303 2.0 8.0 28 65 78.8 51.4 30.072 7.03 0.0 0 0.00 0.00 0.00 0.00
12/11/18 1:54:32 AM 304 3.0 8.0 28 65 78.8 51.2 30.073 7.03 0.0 0 0.00 0.00 0.00 0.00
12/11/18 1:55:24 AM 348 4.0 8.0 28 65 78.8 51.1 30.073 7.03 0.0 0 0.00 0.00 0.00 0.00
12/11/18 1:56:36 AM 5 2.0 8.0 28 66 78.9 50.9 30.072 7.03 0.0 0 0.00 0.00 0.00 0.00
12/11/18 1:57:28 AM 5 1.0 8.0 28 66 78.9 50.7 30.072 7.03 0.0 0 0.00 0.00 0.00 0.00
12/11/18 1:58:21 AM 5 1.0 8.0 28 66 78.9 50.6 30.072 7.03 0.0 0 0.00 0.00 0.00 0.00
12/11/18 1:59:29 AM 5 0.0 8.0 28 66 78.9 50.5 30.072 7.03 0.0 0 0.00 0.00 0.00 0.00
12/11/18 2:00:23 AM 340 2.0 8.0 28 66 78.9 50.5 30.072 7.03 0.0 0 0.00 0.00 0.00 0.00
12/11/18 2:01:34 AM 340 2.0 8.0 28 66 78.8 50.5 30.069 7.03 0.0 0 0.00 0.00 0.00 0.00
12/11/18 2:02:27 AM 340 0.0 8.0 28 66 78.9 50.4 30.069 7.03 0.0 0 0.00 0.00 0.00 0.00
12/11/18 2:03:19 AM 340 0.0 8.0 28 66 78.9 50.5 30.069 7.03 0.0 0 0.00 0.00 0.00 0.00
12/11/18 2:04:31 AM 340 0.0 8.0 28 66 78.9 50.7 30.070 7.03 0.0 0 0.00 0.00 0.00 0.00
12/11/18 2:05:20 AM 340 0.0 8.0 28 66 78.9 51.0 30.070 7.03 0.0 0 0.00 0.00 0.00 0.00
12/11/18 2:06:31 AM 340 0.0 8.0 28 65 78.9 51.0 30.070 7.03 0.0 0 0.00 0.00 0.00 0.00
12/11/18 2:07:27 AM 340 1.0 8.0 28 65 78.9 50.9 30.070 7.03 0.0 0 0.00 0.00 0.00 0.00
12/11/18 2:08:18 AM 340 0.0 8.0 28 65 78.9 50.9 30.070 7.03 0.0 0 0.00 0.00 0.00 0.00
12/11/18 2:09:32 AM 340 0.0 8.0 28 65 78.9 51.0 30.067 7.03 0.0 0 0.00 0.00 0.00 0.00
12/11/18 2:10:19 AM 340 1.0 8.0 28 64 78.9 51.0 30.067 7.03 0.0 0 0.00 0.00 0.00 0.00
12/11/18 2:11:33 AM 340 0.0 8.0 28 65 78.9 50.8 30.066 7.03 0.0 0 0.00 0.00 0.00 0.00
12/11/18 2:12:26 AM 340 0.0 8.0 28 65 78.9 50.7 30.066 7.03 0.0 0 0.00 0.00 0.00 0.00
12/11/18 2:13:19 AM 340 0.0 8.0 28 66 78.9 50.7 30.066 7.03 0.0 0 0.00 0.00 0.00 0.00
12/11/18 2:14:30 AM 340 0.0 8.0 28 66 78.9 50.7 30.065 7.03 0.0 0 0.00 0.00 0.00 0.00
12/11/18 2:15:26 AM 340 0.0 8.0 28 65 78.9 50.8 30.065 7.03 0.0 0 0.00 0.00 0.00 0.00
12/11/18 2:16:34 AM 340 0.0 8.0 28 65 78.9 50.8 30.063 7.03 0.0 0 0.00 0.00 0.00 0.00
12/11/18 2:17:24 AM 340 0.0 8.0 28 65 78.9 50.9 30.063 7.03 0.0 0 0.00 0.00 0.00 0.00
12/11/18 2:18:16 AM 340 0.0 8.0 28 65 78.9 51.0 30.063 7.03 0.0 0 0.00 0.00 0.00 0.00
12/11/18 2:19:30 AM 340 0.0 8.0 28 65 78.9 51.1 30.063 7.03 0.0 0 0.00 0.00 0.00 0.00
12/11/18 2:20:23 AM 340 0.0 8.0 28 65 78.9 51.2 30.063 7.03 0.0 0 0.00 0.00 0.00 0.00
12/11/18 2:21:31 AM 340 0.0 8.0 28 65 78.9 51.1 30.062 7.03 0.0 0 0.00 0.00 0.00 0.00
12/11/18 2:22:21 AM 340 0.0 8.0 28 65 78.9 51.0 30.062 7.03 0.0 0 0.00 0.00 0.00 0.00
12/11/18 2:23:35 AM 340 0.0 8.0 28 66 78.9 50.8 30.060 7.03 0.0 0 0.00 0.00 0.00 0.00
12/11/18 2:24:28 AM 340 2.0 8.0 28 66 78.9 50.6 30.059 7.03 0.0 0 0.00 0.00 0.00 0.00
12/11/18 2:25:18 AM 340 2.0 8.0 28 66 78.9 50.5 30.059 7.03 0.0 0 0.00 0.00 0.00 0.00
12/11/18 2:26:26 AM 340 1.0 8.0 28 67 78.9 50.3 30.060 7.03 0.0 0 0.00 0.00 0.00 0.00
12/11/18 2:27:19 AM 340 1.0 8.0 28 67 78.9 50.2 30.060 7.03 0.0 0 0.00 0.00 0.00 0.00
12/11/18 2:28:33 AM 340 1.0 8.0 28 67 78.9 50.1 30.059 7.03 0.0 0 0.00 0.00 0.00 0.00
12/11/18 2:29:26 AM 340 1.0 8.0 28 67 78.9 50.0 30.059 7.03 0.0 0 0.00 0.00 0.00 0.00
12/11/18 2:30:19 AM 340 0.0 8.0 28 67 78.9 50.0 30.061 7.03 0.0 0 0.00 0.00 0.00 0.00
12/11/18 2:31:32 AM 340 1.0 8.0 28 67 78.9 50.1 30.059 7.03 0.0 0 0.00 0.00 0.00 0.00
12/11/18 2:32:19 AM 340 0.0 8.0 28 67 78.9 50.1 30.059 7.03 0.0 0 0.00 0.00 0.00 0.00
12/11/18 2:33:33 AM 340 0.0 8.0 28 67 78.9 50.1 30.058 7.03 0.0 0 0.00 0.00 0.00 0.00
12/11/18 2:34:23 AM 340 0.0 8.0 28 67 78.9 50.2 30.058 7.03 0.0 0 0.00 0.00 0.00 0.00
12/11/18 2:35:37 AM 340 0.0 8.0 28 67 79.0 50.3 30.056 7.03 0.0 0 0.00 0.00 0.00 0.00
12/11/18 2:36:27 AM 340 0.0 8.0 28 67 78.9 50.4 30.060 7.03 0.0 0 0.00 0.00 0.00 0.00
12/11/18 2:37:38 AM 340 0.0 8.0 28 66 78.9 50.6 30.058 7.03 0.0 0 0.00 0.00 0.00 0.00
12/11/18 2:38:28 AM 340 0.0 8.0 28 66 79.0 50.7 30.058 7.03 0.0 0 0.00 0.00 0.00 0.00
12/11/18 2:39:21 AM 340 0.0 8.0 28 66 79.0 50.7 30.058 7.03 0.0 0 0.00 0.00 0.00 0.00
12/11/18 2:40:35 AM 340 0.0 8.0 28 65 78.9 50.8 30.057 7.03 0.0 0 0.00 0.00 0.00 0.00
12/11/18 2:41:28 AM 340 0.0 8.0 28 65 79.0 50.9 30.060 7.03 0.0 0 0.00 0.00 0.00 0.00
12/11/18 2:42:21 AM 340 0.0 8.0 28 65 79.0 51.0 30.060 7.03 0.0 0 0.00 0.00 0.00 0.00
12/11/18 2:43:29 AM 340 0.0 8.0 28 65 79.0 51.2 30.055 7.03 0.0 0 0.00 0.00 0.00 0.00
12/11/18 2:44:19 AM 340 0.0 8.0 28 65 79.0 51.2 30.055 7.03 0.0 0 0.00 0.00 0.00 0.00
12/11/18 2:45:36 AM 340 0.0 8.0 28 65 78.9 51.2 30.056 7.03 0.0 0 0.00 0.00 0.00 0.00
12/11/18 2:46:26 AM 340 0.0 8.0 28 65 78.9 51.2 30.056 7.03 0.0 0 0.00 0.00 0.00 0.00
12/11/18 2:47:19 AM 340 1.0 8.0 28 65 78.9 51.3 30.055 7.03 0.0 0 0.00 0.00 0.00 0.00
12/11/18 2:48:27 AM 341 1.0 8.0 28 64 79.0 51.4 30.056 7.03 0.0 0 0.00 0.00 0.00 0.00
12/11/18 2:49:20 AM 340 3.0 8.0 28 64 79.0 51.5 30.054 7.03 0.0 0 0.00 0.00 0.00 0.00
12/11/18 2:50:31 AM 303 3.0 8.0 28 64 79.0 51.6 30.054 7.03 0.0 0 0.00 0.00 0.00 0.00
12/11/18 2:51:24 AM 300 4.0 8.0 28 64 79.0 51.7 30.054 7.03 0.0 0 0.00 0.00 0.00 0.00
12/11/18 2:52:17 AM 293 4.0 8.0 28 64 79.0 51.7 30.056 7.03 0.0 0 0.00 0.00 0.00 0.00
12/11/18 2:53:28 AM 296 3.0 8.0 28 64 79.0 51.8 30.052 7.03 0.0 0 0.00 0.00 0.00 0.00
12/11/18 2:54:21 AM 296 3.0 8.0 28 64 79.0 51.8 30.052 7.03 0.0 0 0.00 0.00 0.00 0.00
12/11/18 2:55:32 AM 308 2.0 8.0 28 63 79.0 51.9 30.054 7.03 0.0 0 0.00 0.00 0.00 0.00
12/11/18 2:56:25 AM 308 2.0 8.0 28 63 79.0 52.0 30.054 7.03 0.0 0 0.00 0.00 0.00 0.00
12/11/18 2:57:18 AM 303 2.0 8.0 28 63 79.0 52.1 30.052 7.03 0.0 0 0.00 0.00 0.00 0.00
12/11/18 2:58:29 AM 303 1.0 8.0 28 62 79.0 52.3 30.053 7.03 0.0 0 0.00 0.00 0.00 0.00
12/11/18 2:59:19 AM 303 2.0 8.0 28 62 79.0 52.4 30.053 7.03 0.0 0 0.00 0.00 0.00 0.00
12/11/18 3:00:33 AM 303 1.0 8.0 29 62 79.1 52.4 30.051 7.03 0.0 0 0.00 0.00 0.00 0.00
12/11/18 3:01:23 AM 303 1.0 8.0 29 62 79.1 52.4 30.051 7.03 0.0 0 0.00 0.00 0.00 0.00
12/11/18 3:02:37 AM 303 0.0 8.0 29 62 79.0 52.4 30.051 7.03 0.0 0 0.00 0.00 0.00 0.00
12/11/18 3:03:30 AM 303 2.0 8.0 29 63 79.0 52.3 30.051 7.03 0.0 0 0.00 0.00 0.00 0.00
12/11/18 3:04:20 AM 303 2.0 8.0 29 63 79.0 52.3 30.051 7.03 0.0 0 0.00 0.00 0.00 0.00
12/11/18 3:05:31 AM 303 2.0 8.0 29 62 79.1 52.4 30.049 7.03 0.0 0 0.00 0.00 0.00 0.00
12/11/18 3:06:24 AM 302 2.0 8.0 29 62 79.1 52.4 30.049 7.03 0.0 0 0.00 0.00 0.00 0.00
12/11/18 3:07:17 AM 300 2.0 8.0 29 62 79.0 52.5 30.048 7.03 0.0 0 0.00 0.00 0.00 0.00
12/11/18 3:08:31 AM 299 2.0 8.0 29 62 79.1 52.5 30.049 7.03 0.0 0 0.00 0.00 0.00 0.00
12/11/18 3:09:24 AM 299 2.0 8.0 29 62 79.1 52.6 30.049 7.03 0.0 0 0.00 0.00 0.00 0.00
12/11/18 3:10:32 AM 302 3.0 8.0 29 62 79.1 52.5 30.049 7.03 0.0 0 0.00 0.00 0.00 0.00
12/11/18 3:11:24 AM 315 3.0 8.0 29 63 79.1 52.5 30.049 7.03 0.0 0 0.00 0.00 0.00 0.00
12/11/18 3:12:17 AM 313 3.0 8.0 29 62 79.1 52.4 30.049 7.03 0.0 0 0.00 0.00 0.00 0.00
12/11/18 3:13:31 AM 314 3.0 8.0 29 62 79.1 52.4 30.049 7.03 0.0 0 0.00 0.00 0.00 0.00
12/11/18 3:14:22 AM 316 3.0 8.0 29 62 79.1 52.4 30.049 7.03 0.0 0 0.00 0.00 0.00 0.00
12/11/18 3:15:33 AM 323 3.0 8.0 29 62 79.1 52.4 30.048 7.03 0.0 0 0.00 0.00 0.00 0.00
12/11/18 3:16:26 AM 324 3.0 8.0 29 62 79.1 52.5 30.048 7.03 0.0 0 0.00 0.00 0.00 0.00
12/11/18 3:17:19 AM 324 3.0 8.0 29 61 79.1 52.5 30.046 7.03 0.0 0 0.00 0.00 0.00 0.00
12/11/18 3:18:30 AM 324 1.0 8.0 29 61 79.0 52.7 30.044 7.03 0.0 0 0.00 0.00 0.00 0.00
12/11/18 3:19:23 AM 324 1.0 8.0 29 61 79.0 52.8 30.044 7.03 0.0 0 0.00 0.00 0.00 0.00
12/11/18 3:20:31 AM 324 0.0 8.0 29 60 79.1 53.0 30.042 7.03 0.0 0 0.00 0.00 0.00 0.00
12/11/18 3:21:24 AM 324 0.0 8.0 29 61 79.1 52.9 30.042 7.03 0.0 0 0.00 0.00 0.00 0.00
12/11/18 3:22:17 AM 324 0.0 8.0 29 61 79.1 52.9 30.041 7.03 0.0 0 0.00 0.00 0.00 0.00
12/11/18 3:23:31 AM 323 0.0 8.0 29 62 79.1 52.7 30.038 7.03 0.0 0 0.00 0.00 0.00 0.00
12/11/18 3:24:21 AM 323 0.0 8.0 29 62 79.1 52.6 30.038 7.03 0.0 0 0.00 0.00 0.00 0.00
12/11/18 3:25:35 AM 323 0.0 8.0 29 61 79.1 52.6 30.038 7.03 0.0 0 0.00 0.00 0.00 0.00
12/11/18 3:26:22 AM 323 0.0 8.0 29 61 79.1 52.6 30.038 7.03 0.0 0 0.00 0.00 0.00 0.00
12/11/18 3:27:36 AM 323 0.0 8.0 29 61 79.1 52.7 30.038 7.03 0.0 0 0.00 0.00 0.00 0.00
12/11/18 3:28:26 AM 323 0.0 8.0 29 61 79.1 52.7 30.039 7.03 0.0 0 0.00 0.00 0.00 0.00
12/11/18 3:29:19 AM 323 0.0 8.0 29 61 79.1 52.6 30.039 7.03 0.0 0 0.00 0.00 0.00 0.00
12/11/18 3:30:33 AM 323 0.0 8.0 29 62 79.1 52.5 30.037 7.03 0.0 0 0.00 0.00 0.00 0.00
12/11/18 3:31:20 AM 323 0.0 8.0 29 63 79.1 52.4 30.037 7.03 0.0 0 0.00 0.00 0.00 0.00
12/11/18 3:32:34 AM 323 1.0 8.0 29 63 79.1 52.1 30.037 7.03 0.0 0 0.00 0.00 0.00 0.00
12/11/18 3:33:27 AM 323 1.0 8.0 29 64 79.1 51.9 30.037 7.03 0.0 0 0.00 0.00 0.00 0.00
12/11/18 3:34:20 AM 324 2.0 8.0 29 64 79.1 51.8 30.037 7.03 0.0 0 0.00 0.00 0.00 0.00
12/11/18 3:35:31 AM 75 2.0 8.0 29 65 79.1 51.5 30.035 7.03 0.0 0 0.00 0.00 0.00 0.00
12/11/18 3:36:21 AM 75 2.0 8.0 29 65 79.1 51.4 30.035 7.03 0.0 0 0.00 0.00 0.00 0.00
12/11/18 3:37:32 AM 75 1.0 8.0 29 65 79.1 51.4 30.036 7.03 0.0 0 0.00 0.00 0.00 0.00
12/11/18 3:38:25 AM 80 1.0 8.0 29 65 79.1 51.3 30.036 7.03 0.0 0 0.00 0.00 0.00 0.00
12/11/18 3:39:36 AM 80 0.0 8.0 29 65 79.1 51.4 30.038 7.03 0.0 0 0.00 0.00 0.00 0.00
12/11/18 3:40:29 AM 80 0.0 8.0 29 65 79.1 51.5 30.036 7.03 0.0 0 0.00 0.00 0.00 0.00
12/11/18 3:41:19 AM 80 1.0 8.0 29 65 79.1 51.6 30.036 7.03 0.0 0 0.00 0.00 0.00 0.00
12/11/18 3:42:30 AM 80 1.0 8.0 29 65 79.1 51.5 30.033 7.03 0.0 0 0.00 0.00 0.00 0.00
12/11/18 3:43:23 AM 80 0.0 8.0 29 65 79.1 51.5 30.033 7.03 0.0 0 0.00 0.00 0.00 0.00
12/11/18 3:44:34 AM 80 2.0 8.0 29 65 79.1 51.4 30.034 7.03 0.0 0 0.00 0.00 0.00 0.00
12/11/18 3:45:30 AM 78 1.0 8.0 29 65 79.1 51.5 30.034 7.03 0.0 0 0.00 0.00 0.00 0.00
12/11/18 3:46:20 AM 78 2.0 8.0 29 64 79.1 51.6 30.034 7.03 0.0 0 0.00 0.00 0.00 0.00
12/11/18 3:47:29 AM 78 1.0 8.0 29 64 79.1 51.7 30.033 7.03 0.0 0 0.00 0.00 0.00 0.00
12/11/18 3:48:22 AM 78 1.0 8.0 29 64 79.1 51.7 30.033 7.03 0.0 0 0.00 0.00 0.00 0.00
12/11/18 3:49:33 AM 78 2.0 8.0 29 64 79.1 51.9 30.035 7.03 0.0 0 0.00 0.00 0.00 0.00
12/11/18 3:50:26 AM 78 0.0 8.0 29 63 79.1 52.1 30.036 7.03 0.0 0 0.00 0.00 0.00 0.00
12/11/18 3:51:19 AM 78 0.0 8.0 29 62 79.1 52.3 30.036 7.03 0.0 0 0.00 0.00 0.00 0.00

University Police wind advisory reference

For campus closure information please call the campus Emergency Hotline at (909) 537-5999

© All rights reserved. Unauthorized duplication or distribution is prohibited

Never base important decisions on this or any weather information obtained from the Internet

California State University, San Bernardino
5500 University Parkway, San Bernardino, CA. 92407
Phone: (909) 537-5108, Email: Weather Webmaster
Last Updated: